Regional Weather Roundup
Issued by NWS

Home | Current Version | Previous Version | Text Only | Print | Product List | Glossary Off
Versions: 1 2 3 4 5 6 7 8 9 10 11 12 13 14 15 16 17 18 19 20 21 22 23 24 25 26 27 28 29 30 31 32 33 34 35 36 37 38 39 40 41 42 43 44 45 46 47 48 49 50

000
ASUS45 KABQ 241201
RWRNM
NEW MEXICO REGIONAL WEATHER ROUNDUP
NATIONAL WEATHER SERVICE ALBUQUERQUE NM
600 AM MDT TUE MAY 24 2016

NOTE: "FAIR" MEANS FEW OR NO CLOUDS BELOW 12,000 FEET AGL WITH NO
       SIGNIFICANT WEATHER OR OBSTRUCTIONS TO VISION.

      THIS PRODUCT IS RELEASED AS TWO VERSIONS.  ONE VERSION NEAR
      THE TOP OF THE HOUR CONTAINING PRELIMINARY DATA FROM ALBUQUERQUE
      AND OTHER STATIONS.  A FINAL VERSION WITH ADDITIONAL DATA IS
      ISSUED ABOUT 10 MINUTES AFTER THE HOUR.

NMZ501-503-504-510>518-241300-
NORTHWEST PLATEAU/NORTHCENTRAL MOUNTAINS

CITY           SKY/WX    TMP DP  RH WIND       PRES   REMARKS
FARMINGTON     FAIR      40  20  44 CALM      29.97R
6HR MIN TEMP:  38; 6HR MAX TEMP:  51;

SANTA FE       FAIR      40  20  44 NE7       30.01R
6HR MIN TEMP:  39; 6HR MAX TEMP:  59;

TAOS           FAIR      34  16  47 N6        30.07S WCI  29
ANGEL FIRE     FAIR      25  21  86 CALM      30.12F

$$
NMZ402-403-502-505>509-241300-
WESTCENTRAL MOUNTAINS/SOUTHWEST MOUNTAINS

CITY           SKY/WX    TMP DP  RH WIND       PRES   REMARKS
GALLUP         FAIR      37  22  54 NE6       30.03R WCI  32
6HR MIN TEMP:  36; 6HR MAX TEMP:  56;

GRANTS         FAIR      34  20  56 NW6       30.05S WCI  29
SILVER CITY      N/A     45  23  42 NW9       30.04S

$$
NMZ407-409-411-412-241300-
SOUTHERN DESERTS

CITY           SKY/WX    TMP DP  RH WIND       PRES   REMARKS
LORDSBURG      FAIR      52  23  32 CALM      29.97S
DEMING         FAIR      48  24  39 NW3       29.98R
6HR MIN TEMP:  48; 6HR MAX TEMP:  68;

HOLLOMAN AFB   FAIR      61  21  21 S10       29.94R
ALAMOGORDO     FAIR      57  23  26 SE9       29.96R
T OR C         FAIR      61  23  23 SW5       29.96R
6HR MIN TEMP:  59; 6HR MAX TEMP:  66;


$$
NMZ519>523-241300-
CENTRAL VALLEYS/CENTRAL HIGHLANDS

CITY           SKY/WX    TMP DP  RH WIND       PRES   REMARKS
ALBUQUERQUE    FAIR      53  20  27 CALM      29.99R
6HR MIN TEMP:  53; 6HR MAX TEMP:  61;

DOUBLE EAGLE   CLEAR     45  19  36 W10       30.02R
CLINES CORNERS FAIR      47  19  33 NW12      30.03S
6HR MIN TEMP:  45; 6HR MAX TEMP:  53;

BELEN          FAIR      48  21  34 CALM      29.99R
6HR MIN TEMP:  48; 6HR MAX TEMP:  60;

SOCORRO        NOT AVBL

$$
NMZ524>526-539-540-241300-
SOUTHCENTRAL MOUNTAINS

CITY           SKY/WX    TMP DP  RH WIND       PRES   REMARKS
RUIDOSO        NOT AVBL

$$
NMZ527>531-241300-
NORTHEAST HIGHLANDS/NORTHEAST PLAINS

CITY           SKY/WX    TMP DP  RH WIND       PRES   REMARKS
LAS VEGAS      FAIR      51  20  29 CALM      30.02R
6HR MIN TEMP:  43; 6HR MAX TEMP:  54;

RATON          FAIR      40  27  59 NE7       29.97R
6HR MIN TEMP:  37; 6HR MAX TEMP:  55;

CLAYTON        FAIR      41  36  82 SW6       29.87R
6HR MIN TEMP:  41; 6HR MAX TEMP:  63;


$$
NMZ532>537-241300-
EASTCENTRAL PLAINS

CITY           SKY/WX    TMP DP  RH WIND       PRES   REMARKS
TUCUMCARI      FAIR      57  28  33 W7        29.86R
6HR MIN TEMP:  54; 6HR MAX TEMP:  65;

CANNON AFB     FAIR      55  44  68 CALM      29.92R
6HR MIN TEMP:  54; 6HR MAX TEMP:  65;

CLOVIS AIRPORT FAIR      52  46  82 SW5       29.91S

$$
NMZ028-029-538-241300-
SOUTHEAST PLAINS

CITY           SKY/WX    TMP DP  RH WIND       PRES   REMARKS
ROSWELL        FAIR      53  33  46 S5        29.89R
6HR MIN TEMP:  51; 6HR MAX TEMP:  67;

ARTESIA        FAIR      57  21  24 CALM      29.90R
CARLSBAD       FAIR      58  51  78 SE3       29.88S
6HR MIN TEMP:  58; 6HR MAX TEMP:  74;

HOBBS          CLOUDY    64  64 100 S6        29.93R


$$



USA.gov is the U.S. government's official web portal to all federal, state and local government web resources and services.